FENGYUN 1C DEB

Satellite information

Favourite Embed

Satellite Type and Status

DEBRISIN ORBIT

Key statistics

Satellite FENGYUN 1C DEB at a glance.

Uptime

9555

Days in orbit

Revolutions

≈ 14.4

Per day

Orbit

SSO

Sun Synchronous Orbit

Inclination

98.9

Latest

Satellite identification and parameters

Extended collection of information and parameters for FENGYUN 1C DEB.

Object identification

Identified? True

Debris? True

Object name: FENGYUN 1C DEB

International designator: 1999-025ABG

Object number (NORAD): 30345

Object ID (CCSDS): 30345

Country: PEOPLES REPUBLIC OF CHINA (PRC)

Current information (Y/N): Y

RCS size: SMALL

Orbital parameters

Period: 100.044 minutes

Inclination: 98.9301 deg

SMA: 7138.739 km

Apoapsis: 772.149 km

Periapsis: 749.059 km

RAAN: 240.3242 deg

Eccentricy: 0.0016172

Argument of periapsis: 4.7812 deg

Mean anomaly: 355.3526 deg

Mean motion: 14.39363558 rev/day

Mean motion (dot): 0.00003979 rev/day2

B* drag term: 0.0012924 1/REarth

Two-line elements (TLE)

Creation date: July 6, 2025, 10:26 p.m.

Reference frame: TEME

Reference center: EARTH

Epoch: July 6, 2025, 5:08 p.m. UTC

TLE line 0: 0 FENGYUN 1C DEB

TLE line 1: 1 30345U 99025ABG 25187.71392404 .00003979 00000-0 12924-2 0 9991

TLE line 2: 2 30345 98.9301 240.3242 0016172 4.7812 355.3526 14.39363558954984

Live tracking on map

Real-time ground track for satellite FENGYUN 1C DEB.

In-orbit conjunctions

A list of the most updated potential collisions computed for object FENGYUN 1C DEB.

Target Orbit TCA Probability of collision Miss distance Type
METEOR 2-2 DEB LEO 2025-05-20 00:03:02 0.0001150659 183.0 (m) DEBRIS
IRIDIUM 17 LEO 2025-02-20 03:53:09 0.0007974429 520.0 (m) PAYLOAD
PEGASUS DEB LEO 2024-12-26 09:35:15 0.0001413363 133.0 (m) DEBRIS
DELTA 1 R/B SSO 2024-10-23 01:05:42 0.0001653184 499.0 (m) ROCKET BODY
THORAD AGENA D DEB SSO 2024-08-08 20:35:23 0.0001013712 80.0 (m) DEBRIS

Associated space launch

Chinese polar orbiting meteorological satellite

FENGYUN 1C DEB was lifted into orbit during the mission ‘Long March 4B | Feng Yun 1C’, on board a Long March 4B space rocket.

The launch took place on May 10, 1999, 1:33 a.m. from Launch Complex 7.

For more information about the launch, click the button.

Launch to space Long March 4B | Feng Yun 1C
Long March 4B | Feng Yun 1C

Agency: N/A

Status: Launch Successful

Launch date: May 10, 1999, 1:33 a.m. UTC

Rocket: Long March 4B

Launch pad: Launch Complex 7

Location: Taiyuan Satellite Launch Center, People's Republic of China

...

Latest news about this satellite

There are no fresh news available about this satellite. Check back as we update our databases every day.


Newsletter sign-up

Weekly statistics, charts and insights to help you stay on top of the space industry.